Weather History for KAXA - September, 2014

Change the Weather History Date:

Friday, September 5, 2014

  Actual Average Record
Temperature  
Mean Temperature 60 °F -  
Max Temperature 69 °F 77 °F 91 °F (1998)
Min Temperature 50 °F 55 °F 44 °F (2011)
Degree Days  
Heating Degree Days 6    
Growing Degree Days 10 (Base 50)    
Moisture  
Dew Point 53 °F    
Average Humidity 79    
Maximum Humidity 100    
Minimum Humidity 64    
Precipitation  
Precipitation 0.00 in - - ()
Sea Level Pressure  
Sea Level Pressure 30.13 in    
Wind  
Wind Speed 9 mph (NNW)    
Max Wind Speed 15 mph    
Max Gust Speed 23 mph    
Visibility 10 miles    
Events      
Averages and records for this station are not official NWS values.
T = Trace of Precipitation, MM = Missing Value Source: NWS Daily Summary

Daily Weather History Graph

Daily Weather History Graph

Search for Another Location

Airport or City:

Trip Planner

Search our weather history database for the weather conditions in past years. The results will help you decide how hot, cold, wet, or windy it might be!

Date:

Astronomy

Sep. 05, 2014 Rise Set
Actual Time 6:45 AM CDT 7:44 PM CDT
Civil Twilight 6:16 AM CDT 8:13 PM CDT
Nautical Twilight 5:42 AM CDT 8:48 PM CDT
Astronomical Twilight 5:05 AM CDT 9:24 PM CDT
Moon 5:18 PM CDT (9/5) 2:36 AM CDT (9/5)
Length of Visible Light 13h 56m
Length of Day
12h 59m
Waxing Gibbous, 84% of the Moon is Illuminated
Sep 5
Waxing Gibbous
Sep 8
Full
Sep 15
Last Quarter
Sep 24
New
Oct 1
First Quarter

Hourly Weather History & Observations

Time (CDT) Temp. Dew Point Humidity Pressure Visibility Wind Dir Wind Speed Gust Speed Precip Events Conditions
12:15 AM 69.8 °F 57.2 °F 64% 29.97 in 10.0 mi NNW 11.5 mph 18.4 mph N/A   Overcast
12:35 AM 68.0 °F 57.2 °F 68% 29.97 in 10.0 mi North 11.5 mph - N/A   Mostly Cloudy
12:55 AM 68.0 °F 57.2 °F 68% 30.00 in 10.0 mi NNW 10.4 mph 18.4 mph N/A   Mostly Cloudy
1:15 AM 66.2 °F 57.2 °F 73% 30.03 in 10.0 mi NW 6.9 mph - N/A   Overcast
1:35 AM 66.2 °F 57.2 °F 73% 30.00 in 10.0 mi North 9.2 mph - N/A   Overcast
1:55 AM 62.6 °F 59.0 °F 88% 29.98 in 10.0 mi North 11.5 mph - N/A   Light Drizzle
2:15 AM 64.4 °F 57.2 °F 77% 29.99 in 10.0 mi North 11.5 mph 18.4 mph N/A   Partly Cloudy
2:35 AM 64.4 °F 55.4 °F 73% 30.00 in 10.0 mi NNW 10.4 mph 18.4 mph N/A   Mostly Cloudy
2:55 AM 62.6 °F 55.4 °F 77% 30.03 in 10.0 mi NNW 5.8 mph 12.7 mph N/A   Overcast
3:15 AM 62.6 °F 55.4 °F 77% 30.02 in 10.0 mi North 9.2 mph - N/A   Scattered Clouds
3:35 AM 62.6 °F 53.6 °F 72% 30.05 in 10.0 mi NW 9.2 mph 16.1 mph N/A   Scattered Clouds
3:55 AM 62.6 °F 53.6 °F 72% 30.03 in 10.0 mi North 11.5 mph - N/A   Scattered Clouds
4:15 AM 60.8 °F 53.6 °F 77% 30.03 in 10.0 mi NNW 10.4 mph - N/A   Clear
4:35 AM 60.8 °F 53.6 °F 77% 30.04 in 10.0 mi North 8.1 mph 16.1 mph N/A   Clear
4:55 AM 60.8 °F 53.6 °F 77% 30.03 in 10.0 mi North 11.5 mph 19.6 mph N/A   Partly Cloudy
5:15 AM 60.8 °F 53.6 °F 77% 30.09 in 10.0 mi WNW 6.9 mph - N/A   Mostly Cloudy
5:35 AM 59.0 °F 53.6 °F 82% 30.09 in 10.0 mi NW 8.1 mph - N/A   Partly Cloudy
5:55 AM 59.0 °F 53.6 °F 82% 30.11 in 10.0 mi NW 5.8 mph - N/A   Clear
6:15 AM 59.0 °F 53.6 °F 82% 30.13 in 10.0 mi West 5.8 mph - N/A   Mostly Cloudy
6:35 AM 59.0 °F 53.6 °F 82% 30.09 in 10.0 mi NNW 11.5 mph 18.4 mph N/A   Light Drizzle
6:55 AM 59.0 °F 53.6 °F 82% 30.09 in 10.0 mi NNW 15.0 mph 23.0 mph N/A   Mostly Cloudy
7:15 AM 57.2 °F 53.6 °F 88% 30.11 in 10.0 mi NW 6.9 mph 15.0 mph N/A   Mostly Cloudy
7:35 AM 57.2 °F 53.6 °F 88% 30.16 in 10.0 mi West 3.5 mph - N/A   Overcast
7:55 AM 57.2 °F 53.6 °F 88% 30.10 in 10.0 mi NE 6.9 mph - N/A   Mostly Cloudy
8:15 AM 57.2 °F 53.6 °F 88% 30.10 in 10.0 mi North 8.1 mph - N/A   Partly Cloudy
8:35 AM 59.0 °F 53.6 °F 82% 30.11 in 10.0 mi North 9.2 mph - N/A   Partly Cloudy
8:55 AM 59.0 °F 53.6 °F 82% 30.13 in 10.0 mi NNW 8.1 mph - N/A   Clear
9:15 AM 59.0 °F 53.6 °F 82% 30.13 in 10.0 mi Variable 6.9 mph - N/A   Clear
9:35 AM 59.0 °F 53.6 °F 82% 30.13 in 10.0 mi North 10.4 mph - N/A   Clear
9:55 AM 59.0 °F 51.8 °F 77% 30.13 in 10.0 mi North 15.0 mph - N/A   Clear
10:15 AM 60.8 °F 51.8 °F 72% 30.14 in 10.0 mi North 11.5 mph 18.4 mph N/A   Clear
10:35 AM 60.8 °F 51.8 °F 72% 30.15 in 10.0 mi NNW 6.9 mph 15.0 mph N/A   Clear
11:15 AM 60.8 °F 51.8 °F 72% 30.17 in 10.0 mi NNW 9.2 mph - N/A   Clear
11:35 AM 62.6 °F 51.8 °F 68% 30.17 in 10.0 mi NW 12.7 mph - N/A   Partly Cloudy
11:55 AM 62.6 °F 51.8 °F 68% 30.17 in 10.0 mi NNW 11.5 mph 17.3 mph N/A   Partly Cloudy
12:15 PM 60.8 °F 50.0 °F 68% 30.17 in 3.0 mi NNW 11.5 mph 18.4 mph N/A   Haze
12:35 PM 60.8 °F 50.0 °F 68% 30.19 in 2.0 mi NNW 12.7 mph 19.6 mph N/A   Haze
12:55 PM 60.8 °F 51.8 °F 72% 30.19 in 8.0 mi NNW 12.7 mph - N/A   Mostly Cloudy
1:15 PM 60.8 °F 51.8 °F 72% 30.20 in 9.0 mi NNW 11.5 mph - N/A   Mostly Cloudy
1:35 PM 60.8 °F 51.8 °F 72% 30.21 in 10.0 mi NW 10.4 mph 17.3 mph N/A   Mostly Cloudy
1:55 PM 59.0 °F 51.8 °F 77% 30.21 in 10.0 mi NW 10.4 mph 17.3 mph N/A   Scattered Clouds
2:15 PM 59.0 °F 53.6 °F 82% 30.21 in 10.0 mi NW 8.1 mph - N/A   Light Drizzle
2:35 PM 59.0 °F 55.4 °F 88% 30.21 in 5.0 mi NW 8.1 mph - N/A   Scattered Clouds
2:55 PM 59.0 °F 53.6 °F 82% 30.20 in 10.0 mi NNW 6.9 mph - N/A   Partly Cloudy
3:15 PM 59.0 °F 55.4 °F 88% 30.18 in 10.0 mi NNW 8.1 mph - N/A   Clear
3:35 PM 59.0 °F 55.4 °F 88% 30.17 in 10.0 mi NNW 8.1 mph - N/A   Clear
3:55 PM 59.0 °F 55.4 °F 88% 30.16 in 10.0 mi NNW 10.4 mph - N/A   Clear
4:15 PM 59.0 °F 55.4 °F 88% 30.16 in 10.0 mi Variable 6.9 mph - N/A   Clear
4:35 PM 60.8 °F 53.6 °F 77% 30.16 in 10.0 mi NNW 10.4 mph - N/A   Partly Cloudy
5:15 PM 60.8 °F 51.8 °F 72% 30.17 in 10.0 mi North 8.1 mph 15.0 mph N/A   Clear
5:35 PM 60.8 °F 51.8 °F 72% 30.17 in 10.0 mi North 9.2 mph 15.0 mph N/A   Clear
5:55 PM 60.8 °F 51.8 °F 72% 30.18 in 10.0 mi NNW 12.7 mph - N/A   Partly Cloudy
6:15 PM 60.8 °F 51.8 °F 72% 30.18 in 10.0 mi NNW 9.2 mph 16.1 mph N/A   Mostly Cloudy
6:35 PM 60.8 °F 51.8 °F 72% 30.19 in 10.0 mi NNW 10.4 mph - N/A   Partly Cloudy
6:55 PM 60.8 °F 51.8 °F 72% 30.18 in 10.0 mi NNW 10.4 mph - N/A   Clear
7:15 PM 60.8 °F 51.8 °F 72% 30.18 in 10.0 mi NNW 10.4 mph - N/A   Clear
7:35 PM 59.0 °F 51.8 °F 77% 30.17 in 10.0 mi NNW 8.1 mph 17.3 mph N/A   Clear
7:55 PM 57.2 °F 51.8 °F 82% 30.17 in 10.0 mi NNW 5.8 mph - N/A   Clear
8:15 PM 55.4 °F 51.8 °F 88% 30.17 in 10.0 mi NNW 6.9 mph - N/A   Clear
8:35 PM 55.4 °F 51.8 °F 88% 30.18 in 10.0 mi NNW 5.8 mph - N/A   Clear
9:15 PM 53.6 °F 51.8 °F 94% 30.21 in 10.0 mi NW 4.6 mph - N/A   Clear
9:35 PM 53.6 °F 50.0 °F 88% 30.21 in 10.0 mi NW 4.6 mph - N/A   Clear
9:55 PM 51.8 °F 50.0 °F 94% 30.21 in 10.0 mi Calm Calm - N/A   Clear
10:15 PM 50.0 °F 50.0 °F 100% 30.23 in 10.0 mi West 4.6 mph - N/A   Clear
10:35 PM 50.0 °F 50.0 °F 100% 30.23 in 10.0 mi WNW 4.6 mph - N/A   Clear
11:15 PM 50.0 °F 48.2 °F 94% 30.25 in 10.0 mi WNW 4.6 mph - N/A   Clear
11:55 PM 50.0 °F 48.2 °F 94% 30.25 in 10.0 mi West 4.6 mph - N/A   Clear